Location: Aldenham
(51.6667°N, 0.3500°W)
Time: 16:37:00
(UTC+00:00)

Timation 1 Rocket - Pass Details

Date: 18 November 2025
Orbit: 898 x 905 km, 70.0° (Epoch: 09 December)

Event Time Altitude Azimuth Distance (km) Brightness Sun altitude
Rises 16:48:52 0° 328° (NNW) 3,529 7.6 -6.6°
Reaches altitude 10° 16:51:24 10° 331° (NNW) 2,586 6.8 -6.9°
Maximum altitude 16:57:21 66° 54° (NE) 979 4.3 -7.8°
Drops below altitude 10° 17:03:16 10° 137° (SE) 2,575 6.5 -8.7°
Sets 17:05:47 0° 140° (SE) 3,513 7.2 -9.0°
